Airfield :







YOU CAN JOIN US ON...

 
LOGIN :

Register | Disclaimer

   EN    FR    IT 

 









Legend :    VFR   Marginal VFR   IFR   Intensive IFR   Very Intensive IFR
Visi :
Ceiling :
>= 8 km
>= 3000ft
5 to 8 km
1000 to 3000 ft
1500m to 5 km
500 to 1000 ft
800 to 1500m
200 to 500 ft
< 800m
< 200 ft
Symbols :   Thunderstorms  Fog  Heavy snow  Heavy precipitations  Wind > 20 kt






- Airport Elevation : 555 ft


KORE - Orange Municipal

CURRENT METAR :
  • 200852Z AUTO 00000KT 10SM CLR M01/M03 A3008 RMK AO2 SLP189 I1000 I3000 T10061028 51001

EXPIRED METARs :
  • 200752Z AUTO 00000KT 8SM CLR M01/M02 A3007 RMK AO2 SLP188 T10111022
  • 200714Z AUTO 00000KT 3SM BR CLR M01/M02 A3009 RMK AO2 T10061017
  • 200700Z AUTO 00000KT 1 3/4SM BR CLR M01/M02 A3009 RMK AO2 T10061017

TAF N/A



MET'MAP, your aeronautical weather chart ! - Copyright ORBIFLY December 2007 - Disclaimer

ORBIFLY MET'MAP TEAM :

Programming & Development : Alexandra Zaïnal
Concept & Development : Baudouin d'Aumeries
Co-Development & Prog : Marc-Olivier Méhu
Technical & hardware support : Manuel Goepfert

Contact : metmap@orbifly.com




SOURCES & CREDITS :

   NOAA